Regional Weather Roundup
Issued by NWS

Home | Current Version | Previous Version | Graphics & Text | Print | Product List | Glossary On
Versions: 1 2 3 4 5 6 7 8 9 10 11 12 13 14 15 16 17 18 19 20 21 22 23 24 25 26 27 28 29 30 31 32 33 34 35 36 37 38 39 40 41 42 43 44 45 46 47 48 49 50
000
ASUS43 KOAX 251402
RWRNE

WEATHER ROUNDUP FOR NEBRASKA
NATIONAL WEATHER SERVICE OMAHA NE
900 AM CDT SAT OCT 25 2014

NOTES: SATELLITE DATA IS BEING USED TO AUGMENT CLOUD COVER ABOVE
       12000 FEET.
       "FAIR" INDICATES FEW OR NO CLOUDS BELOW 12,000 FEET WITH NO
       SIGNIFICANT WEATHER AND/OR OBSTRUCTIONS TO VISIBILITY.

  * THESE STATIONS DO NOT REPORT WEATHER SUCH AS RAIN...SNOW OR FOG.

NEZ001>004-019>022-054>056-251500-
NEBRASKA PANHANDLE

CITY           SKY/WX    TMP DP  RH WIND       PRES   REMARKS
SCOTTSBLUFF    CLEAR     39  32  76 N5        30.19R
ALLIANCE       CLEAR     33  30  88 NW5       30.17R WCI  29
CHADRON        CLEAR     31  30  96 CALM      30.18S
KIMBALL        CLEAR     41  31  66 NW9       30.19R
SIDNEY         CLEAR     42  31  64 NW8       30.18R
$$

NEZ057>060-069>072-079>082-251500-
SOUTHWEST NEBRASKA

CITY           SKY/WX    TMP DP  RH WIND       PRES   REMARKS
NORTH PLATTE   CLEAR     39  35  86 NE5       30.12R
IMPERIAL       CLEAR     45  33  63 NW6       30.14R
LEXINGTON      CLEAR     43  40  91 CALM      30.12R
MCCOOK         CLEAR     42  36  79 CALM      30.11R
OGALLALA       CLEAR     38  35  90 CALM      30.15R
$$

NEZ005>010-023>029-035>040-094-251500-
NORTH CENTRAL NEBRASKA

CITY           SKY/WX    TMP DP  RH WIND       PRES   REMARKS
VALENTINE      CLEAR     39  33  79 W3        30.17R
BROKEN BOW     CLEAR     44  40  85 CALM      30.12R
O`NEILL        CLEAR     49  40  73 CALM      30.14S
ORD            CLEAR     49  39  68 CALM      30.12R
THEDFORD       CLEAR     39  36  87 CALM      30.17R
$$

NEZ041-046>049-061>064-073>077-083>087-251500-
SOUTH CENTRAL NEBRASKA

CITY           SKY/WX    TMP DP  RH WIND       PRES   REMARKS
GRAND ISLAND   SUNNY     48  42  80 CALM      30.12R
AURORA         SUNNY     48  43  82 CALM      30.12R
HASTINGS       SUNNY     49  44  83 NE3       30.12R
HEBRON         SUNNY     49  47  90 CALM      30.10R
HOLDREGE       CLEAR     45  42  90 CALM      30.11S
KEARNEY *      SUNNY     46  41  81 NW6       30.13R
YORK           SUNNY     48  45  87 CALM      30.11R
$$

NEZ011>018-030>034-042>045-251500-
NORTHEAST NEBRASKA

CITY           SKY/WX    TMP DP  RH WIND       PRES   REMARKS
NORFOLK        SUNNY     50  44  80 CALM      30.13R
ALBION         SUNNY     44  39  85 NW3       30.13R
BLAIR          SUNNY     55  45  67 N7        30.10R
COLUMBUS *     SUNNY     48  43  81 NE6       30.13R
FREMONT        SUNNY     50  46  85 W5        30.13R
TEKAMAH        SUNNY     48  44  86 N3        30.12R
WAYNE          SUNNY     45  42  88 CALM      30.13S
$$

NEZ050>053-065>068-078-088>093-251500-
SOUTHEAST NEBRASKA

CITY           SKY/WX    TMP DP  RH WIND       PRES   REMARKS
LINCOLN        SUNNY     48  44  86 N5        30.12R
OMAHA EPPLEY   MOSUNNY   50  46  86 N6        30.12R
BEATRICE       SUNNY     48  47  96 CALM      30.10R
FALLS CITY     SUNNY     50  49  96 CALM      30.07R FOG
NEBRASKA CITY  SUNNY     53  47  79 N3        30.10R
PLATTSMOUTH    SUNNY     51  47  88 CALM      30.11R
$$

NEZ044-045-051>053-067-251500-
OMAHA AREA

CITY           SKY/WX    TMP DP  RH WIND       PRES   REMARKS
OMAHA EPPLEY   MOSUNNY   50  46  86 N6        30.12R
BLAIR          SUNNY     55  45  67 N7        30.10R
FREMONT        SUNNY     50  46  85 W5        30.13R
MILLARD        SUNNY     49  47  93 CALM      30.12R
PLATTSMOUTH    SUNNY     51  47  88 CALM      30.11R
WAHOO          FAIR      50  44  78 N7        30.12R
$$



USA.gov is the U.S. government's official web portal to all federal, state and local government web resources and services.